カタログに戻る

MERIDIAN 11

運用中軍事HEO
NORAD 68571·PAYLOAD·🇷🇺 Russia

打ち上げ Jan 3, 2026 から Plesetsk Cosmodrome

Loading…

次のパス (今後24時間)

TLE

最新Source: Space-Track

元期: Sep 14, 2026, 22:29 UTC

1 68571U 26071A   26257.93719847  .00000133  00000-0  00000-0 0  9990
2 68571  62.8346 216.9512 7119451 285.4850  11.4052  2.00608356  3314

AllMySatでMERIDIAN 11をリアルタイム追跡

Download on the App Store